THORAD AGENA D DEB, 4968

Orbit data source: Space-Track

THORAD AGENA D DEB, 4968 is space debris in SSO originally from a launch on Wed, 08 Apr 1970 UTC launched from the Air Force Western Test Range (AFWTR). Debris objects in space refer to the collection of defunct objects orbiting the Earth. Examples of debris include non-operational satellites, rocket bodies, and fragments generated from explosions, collisions, or faulty payload assembly.

Loading next visibility...
Identifier
4968, 1970-025GN
Orbit
SSO
Country
Flag of USUS
Related business
Manufacturer
Unknown
Mission
Spacecraft
Bus & Motor
Unknown
Mass
Unknown
Launch date (UTC)
1970-04-08 (56 years ago)
Launch vehicle
Unknown
Launch site
Air Force Western Test Range (AFWTR)
Object type
Payload
Rocket body
Debris
Shape & HBR
Unknown shape, 0.1 m
Radar Cross Section
Small (<0.1 m²)

Expand to show TLE details & history
Last TLE update: 5 hours ago

TLE from 5 hours ago
0 THORAD AGENA D DEB
1 04968U 70025GN  26072.98320987  .00000236  00000-0  36542-3 0  9998
2 04968 100.1815  79.1759 0018990 260.2251 157.6543 13.62686295771440
Epoch: 2026-03-13T23:35Z
TLE epoch observation values (Epoch: 2026-03-13T23:35:49.332Z)
Latitude
56.64567°
Longitude
-102.1404°
Altitude
1,048.326 km
Speed
7.327 km/s
True Right ascension
04h 13m 42s
True Declination
56° 29' 37"
Sunlit
Object was in daylight at epoch
Visualization orbit readout
Latitude
Unknown
Longitude
Unknown
Altitude
Unknown
Speed
Unknown
Apparent Right ascension
Unknown
Apparent Declination
Unknown
Sunlit
N/A
Visualization observer readout
Local Sidereal Time
09:08:39
Azimuth
Unknown
Elevation
Unknown
Doppler factor
Unknown
Orbital elements
Apogee altitude
1,037.311 km
Perigee altitude
1,009.2 km
Semi-major axis
7,401.392 km
Eccentricity
0.0019
Inclination
100.1815°
RAAN
79.1759°
Arg. of periapsis
260.2251°
True anomaly
157.73685°
Mean anomaly
157.6543°
Eccentric anomaly
157.69559°
Mean motion
3.40858 °/min
Orbital period
105.62 mins
BSTAR
0.00036542

Documentation

Showing up to 5 results
|